Flag for India Weather past 2 weeks in Mumbai, Maharashtra, India

Now
93 °F

Passing clouds.


Feels Like: 99 °F
Forecast: 83 / 91 °F
Wind: 10 mph from West

Location: Bombay / Santacruz

Current Time: Oct 23, 2014 at 4:55:18 PM

Latest Report: Oct 23, 2014 at 4:10 PM


Visibility: 3 mi

Pressure: 29.80 "Hg

Humidity: 47%

Dew point: 70 °F

Location of MumbaiLocation

Historic Weather in Mumbai — Graph

°F

Mumbai temperature yesterday

Maximum temperature yesterday: 99 °F (at 2:40 PM)
Minimum temperature yesterday: 84 °F (at 2:40 AM)
Average temperature yesterday: 90 °F

Past Weeks' High & Low Weather Summary

 TemperatureHumidityPressure
High99 °F (Oct 11, 1:10 PM)94% (Oct 10, 5:10 AM)29.95 "Hg (Oct 10, 5:10 AM)
Low79 °F (Oct 14, 5:40 AM)27% (Oct 23, 3:10 PM)29.65 "Hg (Oct 11, 4:10 PM)
Average88 °F65%29.80 "Hg
* Reported Oct 8 3:40 PM — Oct 23 3:40 PM, Mumbai, Weather by CustomWeather, © 2014

Note: Actual official high and low records may vary slightly from our data, if they occured in-between our weather recording intervals... More about our weather records

Advertising

Mumbai weather history for previous 24 hours

 ConditionsComfort  
Time TempWeatherWind HumidityBarometerVisibility
3:40 PM
Oct 23
95 °FPassing clouds.7 mph41%29.80 "Hg3 mi
3:10 PM99 °FPassing clouds.3 mph27%29.80 "Hg3 mi
2:40 PM99 °FPassing clouds.7 mph29%29.80 "Hg3 mi
2:10 PM97 °FPassing clouds.8 mph32%29.83 "Hg2 mi
1:40 PM97 °FClear.8 mph32%29.83 "Hg2 mi
1:10 PM97 °FClear.9 mph32%29.86 "Hg2 mi
12:40 PM97 °FClear.5 mph32%29.86 "Hg2 mi
12:10 PM95 °FClear.6 mph34%29.89 "Hg2 mi
11:40 AM95 °FClear.7 mph36%29.92 "Hg2 mi
11:10 AM93 °FClear.10 mph36%29.92 "Hg2 mi
10:40 AM93 °FClear.7 mph39%29.92 "Hg2 mi
10:10 AM91 °FClear.6 mph46%29.95 "Hg2 mi
9:40 AM90 °FClear.7 mph46%29.92 "Hg2 mi
9:10 AM88 °FClear.7 mph49%29.92 "Hg2 mi
8:40 AM86 °FClear.8 mph49%29.92 "Hg2 mi
8:10 AM84 °FClear.7 mph51%29.89 "Hg2 mi
7:40 AM82 °FClear.7 mph55%29.89 "Hg2 mi
7:10 AM84 °FClear.8 mph48%29.89 "Hg2 mi
6:40 AM84 °FClear.7 mph48%29.86 "Hg2 mi
6:10 AM84 °FClear.5 mph55%29.86 "Hg2 mi
5:40 AM84 °FClear.5 mph55%29.83 "Hg2 mi
5:10 AM82 °FHaze.3 mph58%29.83 "Hg2 mi
4:40 AM84 °FHaze.3 mph58%29.83 "Hg2 mi
4:10 AM84 °FHaze.3 mph58%29.83 "Hg2 mi
3:10 AM84 °FHaze.5 mph58%29.83 "Hg1 mi
2:40 AM84 °FHaze.5 mph62%29.86 "Hg1 mi
2:10 AM84 °FHaze.5 mph66%29.86 "Hg1 mi
1:40 AM84 °FHaze.6 mph74%29.86 "Hg1 mi
1:10 AM84 °FHaze.5 mph84%29.86 "Hg1 mi
12:40 AM84 °FHaze.3 mph79%29.86 "Hg1 mi
12:10 AM86 °FHaze.6 mph66%29.89 "Hg2 mi
11:40 PM
Oct 22
88 °FClear.10 mph59%29.89 "Hg2 mi
11:10 PM88 °FClear.3 mph59%29.89 "Hg1 mi
10:40 PM88 °FPassing clouds.No wind62%29.89 "Hg1 mi
10:10 PM88 °FPassing clouds.3 mph59%29.89 "Hg1 mi
9:40 PM88 °FPassing clouds.No wind62%29.89 "Hg2 mi
9:10 PM90 °FPassing clouds.7 mph55%29.89 "Hg2 mi
8:40 PM90 °FPassing clouds.7 mph55%29.89 "Hg2 mi
7:40 PM91 °FPassing clouds.10 mph56%29.86 "Hg2 mi
7:10 PM91 °FPassing clouds.8 mph63%29.86 "Hg2 mi
6:40 PM93 °FHaze.8 mph56%29.83 "Hg2 mi
6:10 PM91 °FHaze.7 mph67%29.83 "Hg2 mi
5:10 PM93 °FClear.12 mph53%29.80 "Hg2 mi
4:40 PM97 °FPassing clouds.7 mph37%29.80 "Hg2 mi
4:10 PM97 °FPassing clouds.7 mph37%29.80 "Hg2 mi
Weather by CustomWeather, © 2014

See weather overviewHow to use our weather pages